Location: Atherton
(17.2661°S, 145.4859°E)
Time: 22:02:08
(UTC+10:00)

ARIANE 6 FM1 Upper Stage - Pass Details

Date: 26 May 2025
Orbit: 531 x 610 km, 62.0° (Epoch: 15 June)

Event Time Altitude Azimuth Distance (km) Brightness Sun altitude
Rises 05:25:42 0° 341° (NNW) 2,818 6.2 -17.3°
Reaches altitude 10° 05:27:56 10° 345° (NNW) 1,932 5.4 -16.8°
Maximum altitude 05:32:16 61° 65° (ENE) 694 3.4 -15.8°
Drops below altitude 10° 05:36:41 10° 145° (SE) 1,974 5.7 -14.8°
Sets 05:39:00 0° 148° (SSE) 2,885 6.5 -14.3°
